Regional Weather Roundup
Issued by NWS

Home | Current Version | Previous Version | Text Only | Print | Product List | Glossary On
Versions: 1 2 3 4 5 6 7 8 9 10 11 12 13 14 15 16 17 18 19 20 21 22 23 24 25 26 27 28 29 30 31 32 33 34 35 36 37 38 39 40 41 42 43 44 45 46 47 48 49 50
000
ASUS44 KOUN 302210
RWROK

WEATHER ROUNDUP FOR OKLAHOMA
NATIONAL WEATHER SERVICE NORMAN OK
500 PM CDT SUN AUG 30 2015

NOTE: "FAIR" INDICATES FEW OR NO CLOUDS BELOW 12,000 FEET WITH NO
      SIGNIFICANT WEATHER AND/OR OBSTRUCTIONS TO VISIBILITY.

OKZ001>007-009>012-014-015-017-302300-
NORTHWEST OKLAHOMA AND THE PANHANDLE

CITY           SKY/WX    TMP DP  RH WIND       PRES   REMARKS
GAGE           SUNNY     92  47  21 CALM      29.96F
GUYMON         SUNNY     90  51  26 S9        29.99F
ENID/WOODRING  MOSUNNY   90  64  43 S3        29.94F HX  91
$$

OKZ016-021>023-033>039-044-045-302300-
SOUTHWEST OKLAHOMA

CITY           SKY/WX    TMP DP  RH WIND       PRES   REMARKS
LAWTON/REGL    SUNNY     95  57  27 MISG      29.91F HX  94
LAWTON/FT SILL SUNNY     94  62  34 NE5       29.91F HX  95
FREDERICK      SUNNY     96  57  27 NE3       29.90F HX  95
CLINTON        SUNNY     92  52  25 CALM      29.97F
HOBART         SUNNY     92  56  29 VRB3      29.95F HX  90
ALTUS AFB      SUNNY     93  55  27 CALM      29.93F HX  91
$$

OKZ018>020-024>031-302300-
CENTRAL OKLAHOMA

CITY           SKY/WX    TMP DP  RH WIND       PRES   REMARKS
OKLAHOMA CITY  MOSUNNY   88  63  43 SW8       29.94F
OKC/WILEY POST SUNNY     88  63  43 CALM      29.94F
OKC/TINKER AFB DRIZZLE   89  65  45 E5        29.94F HX  90
STILLWATER     PTSUNNY   86  68  54 CALM      29.94F
GUTHRIE        SUNNY     90  62  39 VRB7      29.93F HX  90
$$

OKZ008-013-054>072-302300-
NORTHEAST OKLAHOMA

CITY           SKY/WX    TMP DP  RH WIND       PRES   REMARKS
TULSA          PTSUNNY   87  71  58 SE8       29.91F HX  93
TULSA/JONES    MOSUNNY   87  70  56 CALM      29.92F HX  92
PONCA CITY     SUNNY     86  68  54 SE8       29.94F
BARTLESVILLE   SUNNY     84  73  69 N6        29.95F HX  90
MUSKOGEE       SUNNY     89  72  56 SW5       29.93F HX  96
$$

OKZ032-040>043-046>053-073>077-302300-
SOUTH CENTRAL/SOUTHEAST OKLAHOMA

CITY           SKY/WX    TMP DP  RH WIND       PRES   REMARKS
ARDMORE/DWNTWN MOSUNNY   95  54  24 SW5       29.91F HX  93
MCALESTER      MOSUNNY   87  72  60 W10G20    29.93F HX  93
$$




USA.gov is the U.S. government's official web portal to all federal, state and local government web resources and services.